Time,TemperatureF,DewpointF,PressureIn,WindDirection,WindDirectionDegrees,WindSpeedMPH,WindSpeedGustMPH,Humidity,HourlyPrecipIn,Conditions,Clouds,dailyrainin,SoftwareType,DateUTC
2013-06-22 11:02:00,74.0,64.0,-100.00,SW,235,5.0,8.0,71,-99.99,,,-99.99,,2013-06-22 15:02:00,
2013-06-22 11:12:00,74.0,64.0,-100.00,SW,225,5.0,9.0,70,-99.99,,,-99.99,,2013-06-22 15:12:00,
2013-06-22 11:22:00,75.0,65.0,-100.00,WSW,240,7.0,9.0,71,-99.99,,,-99.99,,2013-06-22 15:22:00,
2013-06-22 11:43:00,77.0,65.0,-100.00,West,265,3.0,10.0,68,-99.99,,,-99.99,,2013-06-22 15:43:00,
2013-06-22 12:02:00,77.0,65.0,-100.00,SW,230,6.0,12.0,66,-99.99,,,-99.99,,2013-06-22 16:02:00,
2013-06-22 12:22:00,78.0,65.0,-100.00,WSW,245,7.0,14.0,64,-99.99,,,-99.99,,2013-06-22 16:22:00,
2013-06-22 12:34:00,79.0,65.0,-100.00,SW,225,8.0,14.0,62,-99.99,,,-99.99,,2013-06-22 16:34:00,
2013-06-22 12:43:00,79.0,65.0,-100.00,SW,235,7.0,13.0,61,-99.99,,,-99.99,,2013-06-22 16:43:00,
2013-06-22 13:02:00,80.0,65.0,-100.00,SW,230,8.0,15.0,59,-99.99,,,-99.99,,2013-06-22 17:02:00,
2013-06-22 13:34:00,81.0,66.0,-100.00,SW,235,12.0,16.0,60,-99.99,,,-99.99,,2013-06-22 17:34:00,
2013-06-22 13:43:00,81.0,65.0,-100.00,WSW,245,10.0,20.0,57,-99.99,,,-99.99,,2013-06-22 17:43:00,
2013-06-22 13:52:00,82.0,66.0,-100.00,WSW,240,10.0,15.0,58,-99.99,,,-99.99,,2013-06-22 17:52:00,
2013-06-22 14:02:00,80.0,65.0,-100.00,WSW,240,5.0,15.0,59,-99.99,,,-99.99,,2013-06-22 18:02:00,
2013-06-22 14:12:00,80.0,65.0,-100.00,WSW,240,5.0,15.0,59,-99.99,,,-99.99,,2013-06-22 18:12:00,
2013-06-22 14:34:00,82.0,66.0,-100.00,SW,230,6.0,21.0,58,-99.99,,,-99.99,,2013-06-22 18:34:00,
2013-06-22 14:43:00,82.0,65.0,-100.00,SW,235,6.0,18.0,57,-99.99,,,-99.99,,2013-06-22 18:43:00,
2013-06-22 14:52:00,83.0,66.0,-100.00,SW,225,8.0,21.0,57,-99.99,,,-99.99,,2013-06-22 18:52:00,
2013-06-22 15:01:00,83.0,66.0,-100.00,SW,235,7.0,14.0,56,-99.99,,,-99.99,,2013-06-22 19:01:00,
2013-06-22 15:11:00,82.0,64.0,-100.00,SW,235,8.0,15.0,54,-99.99,,,-99.99,,2013-06-22 19:11:00,
2013-06-22 15:22:00,83.0,64.0,-100.00,SW,225,7.0,16.0,52,-99.99,,,-99.99,,2013-06-22 19:22:00,
2013-06-22 15:33:00,84.0,64.0,-100.00,SW,230,6.0,14.0,52,-99.99,,,-99.99,,2013-06-22 19:33:00,
2013-06-22 15:53:00,82.0,64.0,-100.00,SW,225,8.0,18.0,53,-99.99,,,-99.99,,2013-06-22 19:53:00,
2013-06-22 16:02:00,84.0,63.0,-100.00,SSW,210,6.0,15.0,49,-99.99,,,-99.99,,2013-06-22 20:02:00,
2013-06-22 16:22:00,84.0,63.0,-100.00,SW,235,7.0,16.0,49,-99.99,,,-99.99,,2013-06-22 20:22:00,
2013-06-22 16:34:00,84.0,62.0,-100.00,WSW,240,5.0,17.0,48,-99.99,,,-99.99,,2013-06-22 20:34:00,
2013-06-22 16:43:00,82.0,62.0,-100.00,SW,230,6.0,17.0,52,-99.99,,,-99.99,,2013-06-22 20:43:00,
2013-06-22 16:53:00,82.0,62.0,-100.00,SW,230,6.0,17.0,52,-99.99,,,-99.99,,2013-06-22 20:53:00,
2013-06-22 17:01:00,81.0,61.0,-100.00,SW,220,5.0,15.0,51,-99.99,,,-99.99,,2013-06-22 21:01:00,
2013-06-22 17:22:00,83.0,63.0,-100.00,SW,230,5.0,8.0,51,-99.99,,,-99.99,,2013-06-22 21:22:00,
2013-06-22 17:34:00,83.0,62.0,-100.00,SW,235,6.0,10.0,50,-99.99,,,-99.99,,2013-06-22 21:34:00,
2013-06-22 17:43:00,83.0,63.0,-100.00,SW,235,6.0,10.0,50,-99.99,,,-99.99,,2013-06-22 21:43:00,
2013-06-22 17:53:00,84.0,63.0,-100.00,WSW,245,6.0,13.0,49,-99.99,,,-99.99,,2013-06-22 21:53:00,
2013-06-22 18:02:00,83.0,62.0,-100.00,SW,235,7.0,12.0,49,-99.99,,,-99.99,,2013-06-22 22:02:00,
2013-06-22 18:12:00,84.0,61.0,-100.00,SW,235,7.0,13.0,47,-99.99,,,-99.99,,2013-06-22 22:12:00,
2013-06-22 18:33:00,82.0,62.0,-100.00,SW,230,5.0,12.0,51,-99.99,,,-99.99,,2013-06-22 22:33:00,
2013-06-22 18:43:00,82.0,61.0,-100.00,SW,230,7.0,12.0,49,-99.99,,,-99.99,,2013-06-22 22:43:00,
2013-06-22 18:52:00,82.0,61.0,-100.00,SSW,200,5.0,12.0,50,-99.99,,,-99.99,,2013-06-22 22:52:00,
2013-06-22 19:02:00,81.0,61.0,-100.00,WSW,240,6.0,9.0,50,-99.99,,,-99.99,,2013-06-22 23:02:00,
2013-06-22 19:34:00,80.0,61.0,-100.00,SW,230,3.0,7.0,51,-99.99,,,-99.99,,2013-06-22 23:34:00,
2013-06-22 19:43:00,80.0,61.0,-100.00,SW,225,3.0,9.0,52,-99.99,,,-99.99,,2013-06-22 23:43:00,
2013-06-22 19:52:00,80.0,61.0,-100.00,SW,235,5.0,9.0,53,-99.99,,,-99.99,,2013-06-22 23:52:00,
2013-06-22 20:01:00,80.0,61.0,-100.00,West,260,2.0,7.0,53,-99.99,,,-99.99,,2013-06-23 00:01:00,
2013-06-22 20:11:00,79.0,62.0,-100.00,SW,235,3.0,7.0,55,-99.99,,,-99.99,,2013-06-23 00:11:00,
2013-06-22 20:22:00,79.0,62.0,-100.00,SW,230,2.0,8.0,56,-99.99,,,-99.99,,2013-06-23 00:22:00,
2013-06-22 20:53:00,78.0,61.0,-100.00,SW,235,3.0,7.0,57,-99.99,,,-99.99,,2013-06-23 00:53:00,
2013-06-22 21:01:00,77.0,62.0,-100.00,SW,225,3.0,7.0,60,-99.99,,,-99.99,,2013-06-23 01:01:00,
2013-06-22 21:12:00,76.0,62.0,-100.00,WSW,240,3.0,6.0,61,-99.99,,,-99.99,,2013-06-23 01:12:00,
2013-06-22 21:32:00,76.0,61.0,-100.00,SW,230,6.0,10.0,61,-99.99,,,-99.99,,2013-06-23 01:32:00,
2013-06-22 21:42:00,75.0,61.0,-100.00,SW,235,5.0,10.0,61,-99.99,,,-99.99,,2013-06-23 01:42:00,
2013-06-22 21:52:00,75.0,61.0,-100.00,SW,230,5.0,9.0,62,-99.99,,,-99.99,,2013-06-23 01:52:00,
2013-06-22 22:01:00,74.0,61.0,-100.00,SW,220,5.0,9.0,64,-99.99,,,-99.99,,2013-06-23 02:01:00,
2013-06-22 22:11:00,74.0,61.0,-100.00,SW,220,6.0,13.0,64,-99.99,,,-99.99,,2013-06-23 02:11:00,
2013-06-22 22:21:00,74.0,62.0,-100.00,SSW,210,5.0,12.0,65,-99.99,,,-99.99,,2013-06-23 02:21:00,
2013-06-22 22:31:00,74.0,62.0,-100.00,SW,235,7.0,10.0,66,-99.99,,,-99.99,,2013-06-23 02:31:00,
2013-06-22 22:41:00,73.0,62.0,-100.00,SW,230,6.0,12.0,67,-99.99,,,-99.99,,2013-06-23 02:41:00,
2013-06-22 22:52:00,73.0,62.0,-100.00,SW,235,7.0,14.0,68,-99.99,,,-99.99,,2013-06-23 02:52:00,
2013-06-22 23:01:00,73.0,61.0,-100.00,SW,235,7.0,12.0,68,-99.99,,,-99.99,,2013-06-23 03:01:00,
2013-06-22 23:11:00,72.0,62.0,-100.00,SW,225,6.0,10.0,69,-99.99,,,-99.99,,2013-06-23 03:11:00,
2013-06-22 23:21:00,72.0,62.0,-100.00,SW,235,7.0,12.0,69,-99.99,,,-99.99,,2013-06-23 03:21:00,
2013-06-22 23:31:00,72.0,62.0,-100.00,SSW,205,6.0,15.0,69,-99.99,,,-99.99,,2013-06-23 03:31:00,
2013-06-22 23:41:00,72.0,62.0,-100.00,SW,235,7.0,10.0,70,-99.99,,,-99.99,,2013-06-23 03:41:00,
2013-06-22 23:51:00,72.0,62.0,-100.00,SW,225,6.0,16.0,71,-99.99,,,-99.99,,2013-06-23 03:51:00,